This demonstration page uses our WeatherBlox Daily Observations layout. Learn more.

Left ArrowRight Arrow

39.01783, -85.05884

Hourly Observations for March 10, 2017

Temp ( °F °C ) Dew Point ( °F °C ) Humidity (%) Winds ( mph kmh ) Pressure ( in mb ) Visibility ( mi km ) Precip ( " mm )
12:52 am 00:52 Cloudy 41 5 36 2.2 82 82 NE 12 19 29.94 1014 10 16 0.04 1.02
1:52 am 01:52 Cloudy 40 4.4 37 2.8 89 89 N 12 19 29.98 1015 10 16 0.00 0.00
2:52 am 02:52 Cloudy 39 3.9 36 2.2 89 89 N 9 15 30.00 1016 10 16 0.00 0.00
3:33 am 03:33 Cloudy 39 3.9 35 1.7 86 86 N 16 26 30.06 1018 10 16 0.00 0.00
3:52 am 03:52 Cloudy with Drizzle 38 3.3 36 2.2 93 93 N 14 22 30.03 1017 5 8 0.00 0.03
4:04 am 04:04 Cloudy with Drizzle 37 3 36 2 93 93 N 13 20 30.09 1019 6 10 0.00 0.00
4:52 am 04:52 Cloudy 38 3.3 35 1.7 89 89 N 15 24 30.06 1018 10 16 0.00 0.03
5:08 am 05:08 Cloudy 37 2.8 31 -0.6 79 79 N 24 39 30.12 1020 10 16 0.00 0.00
5:20 am 05:20 Mostly Cloudy 37 2.8 31 -0.6 79 79 N 22 35 30.12 1020 10 16 0.00 0.00
5:52 am 05:52 Mostly Cloudy 36 2.2 28 -2.2 73 73 N 20 31 30.11 1020 10 16 0.00 0.00
6:52 am 06:52 Mostly Cloudy 33 0.6 23 -5 66 66 N 15 24 30.16 1021 10 16 0.00 0.00
7:52 am 07:52 Mostly Sunny 34 1.1 20 -6.7 56 56 NNW 13 20 30.19 1022 10 16 0.00 0.00
8:52 am 08:52 Sunny 35 1.7 18 -7.8 50 50 N 18 30 30.22 1023 10 16 0.00 0.00
9:52 am 09:52 Mostly Sunny 37 2.8 14 -10 39 39 NNW 20 31 30.25 1024 10 16 0.00 0.00
10:52 am 10:52 Mostly Sunny 39 3.9 19 -7.2 45 45 NW 20 31 30.27 1025 10 16 0.00 0.00
11:52 am 11:52 Mostly Cloudy 41 5 20 -6.7 43 43 NNW 13 20 30.27 1025 10 16 0.00 0.00
12:52 pm 12:52 Mostly Cloudy 42 5.6 18 -7.8 38 38 NW 22 35 30.27 1025 10 16 0.00 0.00
1:52 pm 13:52 Mostly Cloudy 42 5.6 18 -7.8 38 38 NW 17 28 30.27 1025 10 16 0.00 0.00
2:52 pm 14:52 Mostly Cloudy 43 6.1 19 -7.2 38 38 WNW 21 33 30.27 1025 10 16 0.00 0.00
3:52 pm 15:52 Cloudy 43 6.1 18 -7.8 37 37 WNW 24 39 30.28 1026 10 16 0.00 0.00
4:52 pm 16:52 Mostly Cloudy 39 3.9 16 -8.9 39 39 NW 21 33 30.30 1026 10 16 0.00 0.00
5:52 pm 17:52 Partly Cloudy 38 3.3 16 -8.9 41 41 NW 18 30 30.31 1026 10 16 0.00 0.00
6:52 pm 18:52 Partly Cloudy 36 2.2 15 -9.4 42 42 NW 10 17 30.32 1027 10 16 0.00 0.00
7:52 pm 19:52 Mostly Clear 34 1.1 12 -11.1 40 40 NNW 13 20 30.33 1027 10 16 0.00 0.00
8:52 pm 20:52 Mostly Clear 31 -0.6 11 -11.7 43 43 N 14 22 30.33 1027 10 16 0.00 0.00
9:52 pm 21:52 Clear 29 -1.7 11 -11.7 47 47 N 9 15 30.34 1027 10 16 0.00 0.00
10:52 pm 22:52 Mostly Clear 28 -2.2 9 -12.8 44 44 N 15 24 30.35 1028 10 16 0.00 0.00
11:52 pm 23:52 Mostly Clear 27 -2.8 11 -11.7 51 51 N 9 15 30.35 1028 10 16 0.00 0.00

Powered by AerisWeather